Location: Puketoi
(40.5833°S, 176.0167°E)
Time: 13:45:52
(UTC+00:00)

Okean 2 - Pass Details

Date: 08 February 2023
Orbit: 551 x 569 km, 82.5° (Epoch: 22 March)

Event Time Altitude Azimuth Distance (km) Brightness Sun altitude
Exits shadow 14:39:31 49° 160° (SSE) 735 4.2 -26.9°
Drops below altitude 10° 14:42:35 10° 170° (S) 1,868 6.8 -26.5°
Sets 14:44:47 0° 170° (S) 2,773 7.9 -26.3°
